Time,TemperatureF,DewpointF,PressureIn,WindDirection,WindDirectionDegrees,WindSpeedMPH,WindSpeedGustMPH,Humidity,HourlyPrecipIn,Conditions,Clouds,dailyrainin,SoftwareType,DateUTC
2013-05-25 00:00:00,47.1,38.5,30.12,WNW,293,3.0,9.0,72,0.00,,OVC055,0.11,VWS V14.01,2013-05-25 04:00:00,
2013-05-25 00:01:00,47.1,38.5,30.12,WNW,284,3.0,5.0,72,0.00,,OVC060,0.00,VWS V14.01,2013-05-25 04:01:00,
2013-05-25 00:06:00,47.0,38.8,30.12,West,276,5.0,11.0,73,0.00,,OVC060,0.00,VWS V14.01,2013-05-25 04:06:00,
2013-05-25 00:11:00,46.9,38.7,30.12,WNW,289,4.0,11.0,73,0.00,,OVC060,0.00,VWS V14.01,2013-05-25 04:11:00,
2013-05-25 00:16:00,46.8,39.0,30.12,West,281,6.0,11.0,74,0.00,,OVC060,0.00,VWS V14.01,2013-05-25 04:16:00,
2013-05-25 00:21:00,46.7,38.9,30.12,WNW,293,1.0,11.0,74,0.00,,OVC060,0.00,VWS V14.01,2013-05-25 04:21:00,
2013-05-25 00:26:00,46.7,38.9,30.12,WNW,297,3.0,11.0,74,0.00,,OVC060,0.00,VWS V14.01,2013-05-25 04:26:00,
2013-05-25 00:31:00,46.6,38.8,30.12,NW,324,7.0,9.0,74,0.00,,OVC060,0.00,VWS V14.01,2013-05-25 04:31:00,
2013-05-25 00:36:00,46.6,38.8,30.12,West,280,3.0,10.0,74,0.00,,OVC060,0.00,VWS V14.01,2013-05-25 04:36:00,
2013-05-25 00:41:00,46.5,38.7,30.12,WNW,297,2.0,10.0,74,0.00,,OVC060,0.00,VWS V14.01,2013-05-25 04:41:00,
2013-05-25 00:46:00,46.4,38.6,30.12,WNW,283,7.0,11.0,74,0.00,,OVC060,0.00,VWS V14.01,2013-05-25 04:46:00,
2013-05-25 00:51:00,46.3,38.5,30.12,WSW,254,6.0,11.0,74,0.00,,OVC060,0.00,VWS V14.01,2013-05-25 04:51:00,
2013-05-25 00:56:00,46.2,38.4,30.12,WNW,287,3.0,11.0,74,0.00,,OVC060,0.00,VWS V14.01,2013-05-25 04:56:00,
2013-05-25 01:01:00,46.1,37.9,30.12,WNW,287,4.0,9.0,73,0.00,,OVC060,0.00,VWS V14.01,2013-05-25 05:01:00,
2013-05-25 01:06:00,46.1,38.3,30.12,WNW,297,3.0,9.0,74,0.00,,OVC060,0.00,VWS V14.01,2013-05-25 05:06:00,
2013-05-25 01:11:00,46.0,38.2,30.12,NW,309,3.0,9.0,74,0.00,,OVC060,0.00,VWS V14.01,2013-05-25 05:11:00,
2013-05-25 01:16:00,45.9,38.4,30.12,NW,305,3.0,9.0,75,0.00,,OVC060,0.00,VWS V14.01,2013-05-25 05:16:00,
2013-05-25 01:21:00,45.9,38.1,30.12,WNW,296,4.0,10.0,74,0.00,,OVC060,0.00,VWS V14.01,2013-05-25 05:21:00,
2013-05-25 01:26:00,45.9,38.1,30.11,WNW,293,6.0,10.0,74,0.00,,OVC060,0.00,VWS V14.01,2013-05-25 05:26:00,
2013-05-25 01:31:00,45.8,38.3,30.11,WNW,296,3.0,4.0,75,0.00,,OVC060,0.00,VWS V14.01,2013-05-25 05:31:00,
2013-05-25 01:36:00,45.7,38.6,30.11,West,278,4.0,8.0,76,0.00,,OVC060,0.00,VWS V14.01,2013-05-25 05:36:00,
2013-05-25 01:41:00,45.6,38.8,30.11,WNW,294,4.0,8.0,77,0.00,,OVC060,0.00,VWS V14.01,2013-05-25 05:41:00,
2013-05-25 01:46:00,45.4,38.6,30.11,WNW,287,3.0,8.0,77,0.00,,OVC060,0.00,VWS V14.01,2013-05-25 05:46:00,
2013-05-25 01:51:00,45.3,38.9,30.11,WSW,256,5.0,8.0,78,0.00,,OVC060,0.00,VWS V14.01,2013-05-25 05:51:00,
2013-05-25 01:56:00,45.1,38.7,30.11,WNW,283,5.0,11.0,78,0.00,,OVC060,0.00,VWS V14.01,2013-05-25 05:56:00,
2013-05-25 02:01:00,45.0,38.6,30.11,WNW,283,5.0,8.0,78,0.00,,OVC060,0.00,VWS V14.01,2013-05-25 06:01:00,
2013-05-25 02:06:00,44.7,38.6,30.11,WNW,295,5.0,8.0,79,0.00,,OVC060,0.00,VWS V14.01,2013-05-25 06:06:00,
2013-05-25 02:11:00,44.5,38.4,30.11,WNW,287,5.0,8.0,79,0.00,,OVC060,0.00,VWS V14.01,2013-05-25 06:11:00,
2013-05-25 02:16:00,44.4,38.3,30.11,NW,305,3.0,8.0,79,0.00,,OVC060,0.00,VWS V14.01,2013-05-25 06:16:00,
2013-05-25 02:21:00,44.3,38.2,30.11,WNW,295,3.0,8.0,79,0.00,,OVC060,0.00,VWS V14.01,2013-05-25 06:21:00,
2013-05-25 02:26:00,44.3,37.9,30.11,West,281,6.0,10.0,78,0.00,,OVC060,0.00,VWS V14.01,2013-05-25 06:26:00,
2013-05-25 02:31:00,44.3,37.9,30.11,WNW,293,3.0,4.0,78,0.00,,OVC060,0.00,VWS V14.01,2013-05-25 06:31:00,
2013-05-25 02:36:00,44.3,37.9,30.11,WNW,293,4.0,13.0,78,0.00,,OVC060,0.00,VWS V14.01,2013-05-25 06:36:00,
2013-05-25 02:41:00,44.3,37.9,30.11,West,281,6.0,13.0,78,0.00,,OVC060,0.00,VWS V14.01,2013-05-25 06:41:00,
2013-05-25 02:46:00,44.3,38.2,30.11,NNW,347,7.0,13.0,79,0.00,,OVC060,0.00,VWS V14.01,2013-05-25 06:46:00,
2013-05-25 02:51:00,44.2,38.1,30.11,WNW,284,6.0,13.0,79,0.00,,OVC060,0.00,VWS V14.01,2013-05-25 06:51:00,
2013-05-25 02:56:00,44.1,38.3,30.11,WNW,300,5.0,13.0,80,0.00,,OVC060,0.00,VWS V14.01,2013-05-25 06:56:00,
2013-05-25 03:01:00,44.1,38.3,30.11,NW,304,7.0,8.0,80,0.00,,CLR,0.00,VWS V14.01,2013-05-25 07:01:00,
2013-05-25 03:06:00,44.1,38.3,30.11,WNW,295,6.0,12.0,80,0.00,,CLR,0.00,VWS V14.01,2013-05-25 07:06:00,
2013-05-25 03:11:00,44.0,38.5,30.11,WNW,300,7.0,12.0,81,0.00,,CLR,0.00,VWS V14.01,2013-05-25 07:11:00,
2013-05-25 03:16:00,43.9,38.5,30.10,West,262,4.0,12.0,81,0.00,,CLR,0.00,VWS V14.01,2013-05-25 07:16:00,
2013-05-25 03:21:00,43.8,38.4,30.11,WNW,285,9.0,12.0,81,0.00,,CLR,0.00,VWS V14.01,2013-05-25 07:21:00,
2013-05-25 03:26:00,43.7,38.3,30.11,WNW,302,6.0,12.0,81,0.00,,CLR,0.00,VWS V14.01,2013-05-25 07:26:00,
2013-05-25 03:31:00,43.6,38.5,30.11,NW,318,8.0,9.0,82,0.00,,CLR,0.00,VWS V14.01,2013-05-25 07:31:00,
2013-05-25 03:36:00,43.6,38.5,30.11,NW,308,5.0,9.0,82,0.00,,CLR,0.00,VWS V14.01,2013-05-25 07:36:00,
2013-05-25 03:41:00,43.5,38.4,30.11,WNW,297,1.0,9.0,82,0.00,,CLR,0.00,VWS V14.01,2013-05-25 07:41:00,
2013-05-25 03:46:00,43.4,38.6,30.11,WNW,293,4.0,9.0,83,0.00,,CLR,0.00,VWS V14.01,2013-05-25 07:46:00,
2013-05-25 03:51:00,43.3,38.5,30.11,WSW,257,5.0,10.0,83,0.00,,CLR,0.00,VWS V14.01,2013-05-25 07:51:00,
2013-05-25 03:56:00,43.3,38.5,30.11,WNW,293,7.0,10.0,83,0.00,,CLR,0.00,VWS V14.01,2013-05-25 07:56:00,
2013-05-25 04:01:00,43.3,38.5,30.11,NW,304,10.0,10.0,83,0.00,,CLR,0.00,VWS V14.01,2013-05-25 08:01:00,
2013-05-25 04:06:00,43.4,38.6,30.12,West,277,8.0,11.0,83,0.00,,CLR,0.00,VWS V14.01,2013-05-25 08:06:00,
2013-05-25 04:11:00,43.4,38.6,30.12,WNW,302,4.0,11.0,83,0.00,,CLR,0.00,VWS V14.01,2013-05-25 08:11:00,
2013-05-25 04:16:00,43.3,38.5,30.12,NW,308,4.0,11.0,83,0.00,,CLR,0.00,VWS V14.01,2013-05-25 08:16:00,
2013-05-25 04:21:00,43.3,38.5,30.12,WNW,283,6.0,12.0,83,0.00,,CLR,0.00,VWS V14.01,2013-05-25 08:21:00,
2013-05-25 04:26:00,43.2,38.4,30.12,WNW,291,4.0,12.0,83,0.00,,CLR,0.00,VWS V14.01,2013-05-25 08:26:00,
2013-05-25 04:31:00,43.2,38.4,30.12,WNW,286,3.0,7.0,83,0.00,,CLR,0.00,VWS V14.01,2013-05-25 08:31:00,
2013-05-25 04:36:00,43.1,38.3,30.12,WNW,289,5.0,10.0,83,0.00,,CLR,0.00,VWS V14.01,2013-05-25 08:36:00,
2013-05-25 04:41:00,43.1,38.3,30.12,West,271,3.0,10.0,83,0.00,,CLR,0.00,VWS V14.01,2013-05-25 08:41:00,
2013-05-25 04:46:00,43.0,38.2,30.12,WNW,296,6.0,10.0,83,0.00,,CLR,0.00,VWS V14.01,2013-05-25 08:46:00,
2013-05-25 04:51:00,42.9,38.1,30.13,WNW,298,5.0,10.0,83,0.00,,CLR,0.00,VWS V14.01,2013-05-25 08:51:00,
2013-05-25 04:56:00,42.8,38.0,30.13,WNW,289,8.0,10.0,83,0.00,,CLR,0.00,VWS V14.01,2013-05-25 08:56:00,
2013-05-25 05:01:00,42.7,38.2,30.12,West,280,4.0,6.0,84,0.00,,CLR,0.00,VWS V14.01,2013-05-25 09:01:00,
2013-05-25 05:06:00,42.5,38.0,30.13,WNW,290,5.0,9.0,84,0.00,,CLR,0.00,VWS V14.01,2013-05-25 09:06:00,
2013-05-25 05:11:00,42.5,38.0,30.13,WNW,290,4.0,10.0,84,0.00,,CLR,0.00,VWS V14.01,2013-05-25 09:11:00,
2013-05-25 05:16:00,42.3,37.8,30.12,West,281,4.0,10.0,84,0.00,,CLR,0.00,VWS V14.01,2013-05-25 09:16:00,
2013-05-25 05:21:00,42.3,37.8,30.12,NW,305,6.0,10.0,84,0.00,,CLR,0.00,VWS V14.01,2013-05-25 09:21:00,
2013-05-25 05:26:00,42.3,37.8,30.13,WNW,288,7.0,13.0,84,0.00,,CLR,0.00,VWS V14.01,2013-05-25 09:26:00,
2013-05-25 05:31:00,42.2,37.7,30.13,WNW,283,7.0,9.0,84,0.00,,CLR,0.00,VWS V14.01,2013-05-25 09:31:00,
2013-05-25 05:36:00,42.2,37.7,30.13,WNW,294,6.0,10.0,84,0.00,,CLR,0.00,VWS V14.01,2013-05-25 09:36:00,
2013-05-25 05:41:00,42.2,37.7,30.13,WNW,288,4.0,11.0,84,0.00,,CLR,0.00,VWS V14.01,2013-05-25 09:41:00,
2013-05-25 05:46:00,42.0,37.5,30.13,NW,324,6.0,11.0,84,0.00,,CLR,0.00,VWS V14.01,2013-05-25 09:46:00,
2013-05-25 05:51:00,41.9,37.7,30.13,WNW,287,6.0,11.0,85,0.00,,CLR,0.00,VWS V14.01,2013-05-25 09:51:00,
2013-05-25 05:56:00,41.8,37.6,30.12,West,276,5.0,11.0,85,0.00,,CLR,0.00,VWS V14.01,2013-05-25 09:56:00,
2013-05-25 06:01:00,41.8,37.6,30.12,WNW,285,4.0,9.0,85,0.00,,CLR,0.00,VWS V14.01,2013-05-25 10:01:00,
2013-05-25 06:06:00,41.8,37.6,30.13,WNW,294,7.0,11.0,85,0.00,,CLR,0.00,VWS V14.01,2013-05-25 10:06:00,
2013-05-25 06:11:00,41.9,37.7,30.12,WNW,293,6.0,11.0,85,0.00,,CLR,0.00,VWS V14.01,2013-05-25 10:11:00,
2013-05-25 06:16:00,41.9,37.4,30.13,WNW,290,4.0,12.0,84,0.00,,CLR,0.00,VWS V14.01,2013-05-25 10:16:00,
2013-05-25 06:21:00,42.0,37.8,30.12,WNW,293,4.0,12.0,85,0.00,,CLR,0.00,VWS V14.01,2013-05-25 10:21:00,
2013-05-25 06:26:00,42.3,37.8,30.13,WNW,293,8.0,12.0,84,0.00,,CLR,0.00,VWS V14.01,2013-05-25 10:26:00,
2013-05-25 06:31:00,42.4,37.9,30.13,WNW,294,7.0,10.0,84,0.00,,CLR,0.00,VWS V14.01,2013-05-25 10:31:00,
2013-05-25 06:36:00,42.6,37.8,30.13,WNW,291,9.0,12.0,83,0.00,,CLR,0.00,VWS V14.01,2013-05-25 10:36:00,
2013-05-25 06:41:00,42.9,38.1,30.13,WNW,285,8.0,12.0,83,0.00,,CLR,0.00,VWS V14.01,2013-05-25 10:41:00,
2013-05-25 06:46:00,43.1,38.0,30.13,WNW,283,8.0,13.0,82,0.00,,CLR,0.00,VWS V14.01,2013-05-25 10:46:00,
2013-05-25 06:51:00,43.3,38.2,30.13,WNW,293,8.0,14.0,82,0.00,,CLR,0.00,VWS V14.01,2013-05-25 10:51:00,
2013-05-25 06:56:00,43.5,38.1,30.13,WNW,293,7.0,17.0,81,0.00,,CLR,0.00,VWS V14.01,2013-05-25 10:56:00,
2013-05-25 07:01:00,43.7,38.0,30.14,WNW,293,9.0,11.0,80,0.00,,CLR,0.00,VWS V14.01,2013-05-25 11:01:00,
2013-05-25 07:06:00,43.9,38.1,30.14,WNW,284,8.0,12.0,80,0.00,,CLR,0.00,VWS V14.01,2013-05-25 11:06:00,
2013-05-25 07:11:00,44.1,38.0,30.14,WNW,297,6.0,13.0,79,0.00,,CLR,0.00,VWS V14.01,2013-05-25 11:11:00,
2013-05-25 07:16:00,44.4,38.3,30.14,WNW,290,5.0,13.0,79,0.00,,CLR,0.00,VWS V14.01,2013-05-25 11:16:00,
2013-05-25 07:21:00,44.6,38.2,30.14,WNW,283,8.0,15.0,78,0.00,,CLR,0.00,VWS V14.01,2013-05-25 11:21:00,
2013-05-25 07:26:00,44.8,38.0,30.14,WNW,294,11.0,17.0,77,0.00,,CLR,0.00,VWS V14.01,2013-05-25 11:26:00,
2013-05-25 07:31:00,45.1,38.3,30.14,WNW,302,7.0,15.0,77,0.00,,CLR,0.00,VWS V14.01,2013-05-25 11:31:00,
2013-05-25 07:36:00,45.3,38.2,30.15,WNW,287,8.0,15.0,76,0.00,,CLR,0.00,VWS V14.01,2013-05-25 11:36:00,
2013-05-25 07:41:00,45.6,38.5,30.14,NNW,333,7.0,15.0,76,0.00,,CLR,0.00,VWS V14.01,2013-05-25 11:41:00,
2013-05-25 07:46:00,45.9,38.4,30.15,NW,309,9.0,15.0,75,0.00,,CLR,0.00,VWS V14.01,2013-05-25 11:46:00,
2013-05-25 07:51:00,46.3,38.8,30.15,WSW,257,4.0,15.0,75,0.00,,CLR,0.00,VWS V14.01,2013-05-25 11:51:00,
2013-05-25 07:56:00,46.6,38.8,30.14,WNW,287,6.0,15.0,74,0.00,,CLR,0.00,VWS V14.01,2013-05-25 11:56:00,
2013-05-25 08:01:00,46.7,38.5,30.14,WNW,286,5.0,7.0,73,0.00,,CLR,0.00,VWS V14.01,2013-05-25 12:01:00,
2013-05-25 08:06:00,47.0,39.2,30.14,WNW,283,8.0,11.0,74,0.00,,CLR,0.00,VWS V14.01,2013-05-25 12:06:00,
2013-05-25 08:11:00,47.5,39.3,30.14,WNW,294,5.0,11.0,73,0.00,,CLR,0.00,VWS V14.01,2013-05-25 12:11:00,
2013-05-25 08:16:00,47.9,39.3,30.14,NW,309,10.0,13.0,72,0.00,,CLR,0.00,VWS V14.01,2013-05-25 12:16:00,
2013-05-25 08:21:00,48.2,38.9,30.14,WNW,287,6.0,13.0,70,0.00,,CLR,0.00,VWS V14.01,2013-05-25 12:21:00,
2013-05-25 08:26:00,48.7,39.0,30.14,NW,312,3.0,13.0,69,0.00,,CLR,0.00,VWS V14.01,2013-05-25 12:26:00,
2013-05-25 08:31:00,48.9,38.1,30.14,WNW,289,6.0,12.0,66,0.00,,CLR,0.00,VWS V14.01,2013-05-25 12:31:00,
2013-05-25 08:36:00,49.3,38.0,30.14,NNE,24,6.0,12.0,65,0.00,,CLR,0.00,VWS V14.01,2013-05-25 12:36:00,
2013-05-25 08:41:00,50.0,38.3,30.14,WNW,297,10.0,15.0,64,0.00,,CLR,0.00,VWS V14.01,2013-05-25 12:41:00,
2013-05-25 08:46:00,50.0,37.5,30.14,NNE,21,2.0,15.0,62,0.00,,CLR,0.00,VWS V14.01,2013-05-25 12:46:00,
2013-05-25 08:51:00,50.2,37.3,30.14,NNW,342,2.0,17.0,61,0.00,,CLR,0.00,VWS V14.01,2013-05-25 12:51:00,
2013-05-25 08:56:00,50.1,37.2,30.14,West,277,5.0,17.0,61,0.00,,CLR,0.00,VWS V14.01,2013-05-25 12:56:00,
2013-05-25 09:01:00,50.3,37.8,30.14,West,273,4.0,4.0,62,0.00,,SCT045,0.00,VWS V14.01,2013-05-25 13:01:00,
2013-05-25 09:06:00,50.9,37.1,30.14,NNE,30,5.0,11.0,59,0.00,,SCT045,0.00,VWS V14.01,2013-05-25 13:06:00,
2013-05-25 09:11:00,50.9,37.1,30.14,NNE,25,8.0,11.0,59,0.00,,SCT045,0.00,VWS V14.01,2013-05-25 13:11:00,
2013-05-25 09:16:00,50.9,35.8,30.14,ENE,77,9.0,17.0,56,0.00,,SCT045,0.00,VWS V14.01,2013-05-25 13:16:00,
2013-05-25 09:21:00,50.9,35.8,30.14,NNW,345,4.0,17.0,56,0.00,,SCT045,0.00,VWS V14.01,2013-05-25 13:21:00,
2013-05-25 09:26:00,51.1,36.8,30.14,WNW,300,3.0,17.0,58,0.00,,SCT045,0.00,VWS V14.01,2013-05-25 13:26:00,
2013-05-25 09:31:00,51.6,36.0,30.14,NNE,12,8.0,11.0,55,0.00,,SCT045,0.00,VWS V14.01,2013-05-25 13:31:00,
2013-05-25 09:36:00,52.1,37.3,30.14,NNE,30,9.0,11.0,57,0.00,,SCT045,0.00,VWS V14.01,2013-05-25 13:36:00,
2013-05-25 09:41:00,52.2,36.1,30.14,NNE,16,6.0,15.0,54,0.00,,SCT045,0.00,VWS V14.01,2013-05-25 13:41:00,
2013-05-25 09:46:00,52.6,35.5,30.14,NNW,346,3.0,15.0,52,0.00,,SCT045,0.00,VWS V14.01,2013-05-25 13:46:00,
2013-05-25 09:51:00,52.8,36.6,30.14,NNE,20,6.0,15.0,54,0.00,,SCT045,0.00,VWS V14.01,2013-05-25 13:51:00,
2013-05-25 09:56:00,52.9,34.8,30.15,NNW,339,9.0,16.0,50,0.00,,SCT045,0.00,VWS V14.01,2013-05-25 13:56:00,
2013-05-25 10:01:00,52.7,36.1,30.15,NW,321,9.0,10.0,53,0.00,,BKN050,0.00,VWS V14.01,2013-05-25 14:01:00,
2013-05-25 10:06:00,53.2,36.0,30.14,WNW,294,4.0,12.0,52,0.00,,BKN050,0.00,VWS V14.01,2013-05-25 14:06:00,
2013-05-25 10:11:00,53.6,35.4,30.14,ENE,74,11.0,13.0,50,0.00,,BKN050,0.00,VWS V14.01,2013-05-25 14:11:00,
2013-05-25 10:16:00,53.7,35.0,30.14,NNE,21,4.0,16.0,49,0.00,,BKN050,0.00,VWS V14.01,2013-05-25 14:16:00,
2013-05-25 10:21:00,53.3,35.7,30.14,NNE,13,5.0,16.0,51,0.00,,BKN050,0.00,VWS V14.01,2013-05-25 14:21:00,
2013-05-25 10:25:00,54.1,36.4,30.14,WNW,287,5.0,16.0,51,0.00,,BKN050,0.00,VWS V14.01,2013-05-25 14:25:00,
2013-05-25 10:30:00,54.6,34.2,30.14,West,279,4.0,10.0,46,0.00,,BKN050,0.00,VWS V14.01,2013-05-25 14:30:00,
2013-05-25 10:35:00,55.1,35.8,30.14,NE,43,4.0,14.0,48,0.00,,BKN050,0.00,VWS V14.01,2013-05-25 14:35:00,
2013-05-25 10:40:00,55.1,35.2,30.14,NW,321,2.0,25.0,47,0.00,,BKN050,0.00,VWS V14.01,2013-05-25 14:40:00,
2013-05-25 10:45:00,55.4,35.5,30.14,NNW,339,2.0,25.0,47,0.00,,BKN050,0.00,VWS V14.01,2013-05-25 14:45:00,
2013-05-25 10:50:00,55.1,34.2,30.14,NE,39,7.0,25.0,45,0.00,,BKN050,0.00,VWS V14.01,2013-05-25 14:50:00,
2013-05-25 10:55:00,55.1,34.7,30.14,ENE,58,3.0,25.0,46,0.00,,BKN050,0.00,VWS V14.01,2013-05-25 14:55:00,
2013-05-25 11:00:00,55.4,35.0,30.14,NNW,342,10.0,10.0,46,0.00,,BKN055,0.00,VWS V14.01,2013-05-25 15:00:00,
2013-05-25 11:05:00,55.7,35.8,30.14,NE,39,8.0,15.0,47,0.00,,BKN055,0.00,VWS V14.01,2013-05-25 15:05:00,
2013-05-25 11:10:00,56.1,36.2,30.14,NNE,18,6.0,15.0,47,0.00,,BKN055,0.00,VWS V14.01,2013-05-25 15:10:00,
2013-05-25 11:15:00,55.5,35.6,30.14,WNW,299,11.0,15.0,47,0.00,,BKN055,0.00,VWS V14.01,2013-05-25 15:15:00,
2013-05-25 11:20:00,54.9,35.1,30.14,WNW,288,6.0,15.0,47,0.00,,BKN055,0.00,VWS V14.01,2013-05-25 15:20:00,
2013-05-25 11:25:00,54.9,35.1,30.14,NNE,20,7.0,15.0,47,0.00,,BKN055,0.00,VWS V14.01,2013-05-25 15:25:00,
2013-05-25 11:30:00,54.9,35.1,30.14,NNE,20,4.0,10.0,47,0.00,,BKN055,0.00,VWS V14.01,2013-05-25 15:30:00,
2013-05-25 11:35:00,54.9,35.1,30.14,WNW,283,5.0,16.0,47,0.00,,BKN055,0.00,VWS V14.01,2013-05-25 15:35:00,
2013-05-25 11:40:00,55.1,34.7,30.14,NNW,338,9.0,16.0,46,0.00,,BKN055,0.00,VWS V14.01,2013-05-25 15:40:00,
2013-05-25 11:45:00,55.6,35.2,30.14,NE,36,3.0,16.0,46,0.00,,BKN055,0.00,VWS V14.01,2013-05-25 15:45:00,
2013-05-25 11:50:00,56.8,36.3,30.14,NE,37,2.0,16.0,46,0.00,,BKN055,0.00,VWS V14.01,2013-05-25 15:50:00,
2013-05-25 11:55:00,57.5,35.8,30.14,NNE,16,5.0,17.0,44,0.00,,BKN055,0.00,VWS V14.01,2013-05-25 15:55:00,
2013-05-25 12:00:00,56.9,35.8,30.14,NW,312,8.0,14.0,45,0.00,,BKN055,0.00,VWS V14.01,2013-05-25 16:00:00,
2013-05-25 12:05:00,56.1,35.6,30.14,NNE,32,3.0,14.0,46,0.00,,BKN055,0.00,VWS V14.01,2013-05-25 16:05:00,
2013-05-25 12:10:00,56.3,35.2,30.13,NE,44,8.0,16.0,45,0.00,,BKN055,0.00,VWS V14.01,2013-05-25 16:10:00,
2013-05-25 12:15:00,56.8,35.1,30.13,West,276,7.0,16.0,44,0.00,,BKN055,0.00,VWS V14.01,2013-05-25 16:15:00,
2013-05-25 12:20:00,56.8,36.3,30.13,NE,47,6.0,18.0,46,0.00,,BKN055,0.00,VWS V14.01,2013-05-25 16:20:00,
2013-05-25 12:25:00,57.5,36.3,30.13,WNW,287,5.0,18.0,45,0.00,,BKN055,0.00,VWS V14.01,2013-05-25 16:25:00,
2013-05-25 12:30:00,58.0,36.8,30.12,WSW,253,3.0,5.0,45,0.00,,BKN055,0.00,VWS V14.01,2013-05-25 16:30:00,
2013-05-25 12:35:00,58.1,35.7,30.12,NNE,21,8.0,19.0,43,0.00,,BKN055,0.00,VWS V14.01,2013-05-25 16:35:00,
2013-05-25 12:40:00,57.7,35.4,30.12,NNW,347,7.0,19.0,43,0.00,,BKN055,0.00,VWS V14.01,2013-05-25 16:40:00,
2013-05-25 12:45:00,57.3,34.4,30.12,North,359,4.0,19.0,42,0.00,,BKN055,0.00,VWS V14.01,2013-05-25 16:45:00,
2013-05-25 12:50:00,57.3,35.6,30.12,WNW,302,4.0,19.0,44,0.00,,BKN055,0.00,VWS V14.01,2013-05-25 16:50:00,
2013-05-25 12:55:00,57.3,34.4,30.12,North,352,3.0,20.0,42,0.00,,BKN055,0.00,VWS V14.01,2013-05-25 16:55:00,
2013-05-25 13:00:00,57.2,34.9,30.12,WSW,240,3.0,3.0,43,0.00,,OVC060,0.00,VWS V14.01,2013-05-25 17:00:00,
2013-05-25 13:05:00,57.8,36.6,30.12,NE,44,4.0,22.0,45,0.00,,OVC060,0.00,VWS V14.01,2013-05-25 17:05:00,
2013-05-25 13:10:00,58.7,35.1,30.12,NNE,16,14.0,22.0,41,0.00,,OVC060,0.00,VWS V14.01,2013-05-25 17:10:00,
2013-05-25 13:15:00,58.9,35.9,30.11,North,6,4.0,22.0,42,0.00,,OVC060,0.00,VWS V14.01,2013-05-25 17:15:00,
2013-05-25 13:20:00,59.5,36.4,30.11,WNW,285,6.0,22.0,42,0.00,,OVC060,0.00,VWS V14.01,2013-05-25 17:20:00,
2013-05-25 13:25:00,59.1,34.8,30.12,West,277,2.0,22.0,40,0.00,,OVC060,0.00,VWS V14.01,2013-05-25 17:25:00,
2013-05-25 13:30:00,59.0,34.7,30.11,WNW,298,2.0,2.0,40,0.00,,OVC060,0.00,VWS V14.01,2013-05-25 17:30:00,
2013-05-25 13:35:00,59.0,34.1,30.11,NNE,19,13.0,18.0,39,0.00,,OVC060,0.00,VWS V14.01,2013-05-25 17:35:00,
2013-05-25 13:40:00,58.5,33.7,30.11,WNW,285,8.0,18.0,39,0.00,,OVC060,0.00,VWS V14.01,2013-05-25 17:40:00,
2013-05-25 13:45:00,58.3,34.7,30.11,NNE,23,2.0,18.0,41,0.00,,OVC060,0.00,VWS V14.01,2013-05-25 17:45:00,
2013-05-25 13:50:00,58.8,35.8,30.11,NNE,27,2.0,18.0,42,0.00,,OVC060,0.00,VWS V14.01,2013-05-25 17:50:00,
2013-05-25 13:55:00,58.7,35.1,30.11,North,11,12.0,18.0,41,0.00,,OVC060,0.00,VWS V14.01,2013-05-25 17:55:00,
2013-05-25 14:00:00,59.1,36.7,30.10,NNW,336,6.0,18.0,43,0.00,,BKN065,0.00,VWS V14.01,2013-05-25 18:00:00,
2013-05-25 14:05:00,58.9,34.6,30.10,WNW,302,4.0,25.0,40,0.00,,BKN065,0.00,VWS V14.01,2013-05-25 18:05:00,
2013-05-25 14:10:00,58.9,35.3,30.10,East,83,3.0,25.0,41,0.00,,BKN065,0.00,VWS V14.01,2013-05-25 18:10:00,
2013-05-25 14:15:00,59.2,35.5,30.10,NNE,14,5.0,25.0,41,0.00,,BKN065,0.00,VWS V14.01,2013-05-25 18:15:00,
2013-05-25 14:20:00,59.6,35.3,30.10,NNE,19,9.0,25.0,40,0.00,,BKN065,0.00,VWS V14.01,2013-05-25 18:20:00,
2013-05-25 14:25:00,59.9,36.2,30.10,NE,42,4.0,25.0,41,0.00,,BKN065,0.00,VWS V14.01,2013-05-25 18:25:00,
2013-05-25 14:30:00,60.2,35.2,30.09,NNW,327,3.0,25.0,39,0.00,,BKN065,0.00,VWS V14.01,2013-05-25 18:30:00,
2013-05-25 14:35:00,60.7,36.3,30.09,NE,47,3.0,12.0,40,0.00,,BKN065,0.00,VWS V14.01,2013-05-25 18:35:00,
2013-05-25 14:40:00,61.2,36.7,30.09,North,11,6.0,19.0,40,0.00,,BKN065,0.00,VWS V14.01,2013-05-25 18:40:00,
2013-05-25 14:45:00,61.2,36.1,30.09,NNE,12,13.0,19.0,39,0.00,,BKN065,0.00,VWS V14.01,2013-05-25 18:45:00,
2013-05-25 14:50:00,60.5,34.1,30.08,NW,317,6.0,19.0,37,0.00,,BKN065,0.00,VWS V14.01,2013-05-25 18:50:00,
2013-05-25 14:55:00,60.9,35.1,30.08,NNW,333,5.0,19.0,38,0.00,,BKN065,0.00,VWS V14.01,2013-05-25 18:55:00,
2013-05-25 15:00:00,61.1,34.7,30.08,NE,37,13.0,19.0,37,0.00,,BKN065,0.00,VWS V14.01,2013-05-25 19:00:00,
2013-05-25 15:05:00,60.7,35.0,30.08,NE,34,9.0,17.0,38,0.00,,BKN065,0.00,VWS V14.01,2013-05-25 19:05:00,
2013-05-25 15:10:00,60.9,35.8,30.08,North,4,5.0,17.0,39,0.00,,BKN065,0.00,VWS V14.01,2013-05-25 19:10:00,
2013-05-25 15:15:00,61.4,34.9,30.08,NE,56,5.0,17.0,37,0.00,,BKN065,0.00,VWS V14.01,2013-05-25 19:15:00,
2013-05-25 15:20:00,61.7,35.2,30.08,NNE,27,7.0,17.0,37,0.00,,BKN065,0.00,VWS V14.01,2013-05-25 19:20:00,
2013-05-25 15:25:00,61.9,35.4,30.08,NE,36,7.0,17.0,37,0.00,,BKN065,0.00,VWS V14.01,2013-05-25 19:25:00,
2013-05-25 15:30:00,61.7,35.2,30.08,NE,46,10.0,17.0,37,0.00,,BKN065,0.00,VWS V14.01,2013-05-25 19:30:00,
2013-05-25 15:35:00,61.2,34.1,30.07,NNE,27,11.0,17.0,36,0.00,,BKN065,0.00,VWS V14.01,2013-05-25 19:35:00,
2013-05-25 15:40:00,61.3,34.1,30.08,NNW,342,6.0,19.0,36,0.00,,BKN065,0.00,VWS V14.01,2013-05-25 19:40:00,
2013-05-25 15:45:00,61.5,35.0,30.07,NNW,333,14.0,19.0,37,0.00,,BKN065,0.00,VWS V14.01,2013-05-25 19:45:00,
2013-05-25 15:50:00,61.5,35.0,30.07,ENE,68,3.0,20.0,37,0.00,,BKN065,0.00,VWS V14.01,2013-05-25 19:50:00,
2013-05-25 15:55:00,61.6,35.8,30.07,NNE,20,5.0,20.0,38,0.00,,BKN065,0.00,VWS V14.01,2013-05-25 19:55:00,
2013-05-25 16:00:00,62.0,35.5,30.07,NE,41,3.0,20.0,37,0.00,,CLR,0.00,VWS V14.01,2013-05-25 20:00:00,
2013-05-25 16:05:00,62.3,35.0,30.07,NNE,26,3.0,12.0,36,0.00,,CLR,0.00,VWS V14.01,2013-05-25 20:05:00,
2013-05-25 16:10:00,62.3,34.3,30.07,NNE,26,6.0,12.0,35,0.00,,CLR,0.00,VWS V14.01,2013-05-25 20:10:00,
2013-05-25 16:15:00,62.3,35.0,30.06,NE,39,5.0,14.0,36,0.00,,CLR,0.00,VWS V14.01,2013-05-25 20:15:00,
2013-05-25 16:20:00,62.3,35.0,30.07,North,11,3.0,14.0,36,0.00,,CLR,0.00,VWS V14.01,2013-05-25 20:20:00,
2013-05-25 16:25:00,62.1,33.4,30.06,WNW,290,4.0,20.0,34,0.00,,CLR,0.00,VWS V14.01,2013-05-25 20:25:00,
2013-05-25 16:30:00,62.3,33.6,30.06,North,1,4.0,20.0,34,0.00,,CLR,0.00,VWS V14.01,2013-05-25 20:30:00,
2013-05-25 16:35:00,62.3,33.6,30.06,NNE,30,5.0,17.0,34,0.00,,CLR,0.00,VWS V14.01,2013-05-25 20:35:00,
2013-05-25 16:40:00,62.4,35.1,30.06,East,81,3.0,17.0,36,0.00,,CLR,0.00,VWS V14.01,2013-05-25 20:40:00,
2013-05-25 16:45:00,62.6,33.9,30.06,NNW,332,6.0,17.0,34,0.00,,CLR,0.00,VWS V14.01,2013-05-25 20:45:00,
2013-05-25 16:50:00,62.4,33.7,30.06,NNE,27,9.0,17.0,34,0.00,,CLR,0.00,VWS V14.01,2013-05-25 20:50:00,
2013-05-25 16:55:00,62.5,35.2,30.06,NE,34,12.0,18.0,36,0.00,,CLR,0.00,VWS V14.01,2013-05-25 20:55:00,
2013-05-25 17:00:00,63.1,35.0,30.06,NNE,20,3.0,18.0,35,0.00,,FEW050,0.00,VWS V14.01,2013-05-25 21:00:00,
2013-05-25 17:05:00,63.4,35.3,30.06,NE,36,2.0,14.0,35,0.00,,FEW050,0.00,VWS V14.01,2013-05-25 21:05:00,
2013-05-25 17:10:00,63.3,34.5,30.06,WNW,290,9.0,17.0,34,0.00,,FEW050,0.00,VWS V14.01,2013-05-25 21:10:00,
2013-05-25 17:15:00,62.9,33.4,30.06,NE,48,2.0,17.0,33,0.00,,FEW050,0.00,VWS V14.01,2013-05-25 21:15:00,
2013-05-25 17:20:00,62.9,33.4,30.06,NNE,13,3.0,17.0,33,0.00,,FEW050,0.00,VWS V14.01,2013-05-25 21:20:00,
2013-05-25 17:25:00,62.9,34.8,30.06,NW,312,2.0,17.0,35,0.00,,FEW050,0.00,VWS V14.01,2013-05-25 21:25:00,
2013-05-25 17:30:00,63.2,34.4,30.06,WNW,287,4.0,17.0,34,0.00,,FEW050,0.00,VWS V14.01,2013-05-25 21:30:00,
2013-05-25 17:35:00,63.1,34.3,30.06,ENE,77,8.0,13.0,34,0.00,,FEW050,0.00,VWS V14.01,2013-05-25 21:35:00,
2013-05-25 17:40:00,63.1,34.3,30.06,WNW,288,3.0,13.0,34,0.00,,FEW050,0.00,VWS V14.01,2013-05-25 21:40:00,
2013-05-25 17:45:00,63.0,34.9,30.07,NNW,330,2.0,13.0,35,0.00,,FEW050,0.00,VWS V14.01,2013-05-25 21:45:00,
2013-05-25 17:50:00,63.4,35.3,30.07,North,11,11.0,13.0,35,0.00,,FEW050,0.00,VWS V14.01,2013-05-25 21:50:00,
2013-05-25 17:55:00,63.4,35.3,30.07,NNW,327,12.0,13.0,35,0.00,,FEW050,0.00,VWS V14.01,2013-05-25 21:55:00,
2013-05-25 18:00:00,63.0,33.5,30.07,East,91,12.0,13.0,33,0.00,,FEW050,0.00,VWS V14.01,2013-05-25 22:00:00,
2013-05-25 18:05:00,62.6,34.6,30.07,NNE,14,6.0,13.0,35,0.00,,FEW050,0.00,VWS V14.01,2013-05-25 22:05:00,
2013-05-25 18:10:00,62.2,33.5,30.07,North,352,14.0,14.0,34,0.00,,FEW050,0.00,VWS V14.01,2013-05-25 22:10:00,
2013-05-25 18:15:00,62.0,34.1,30.07,NNE,23,4.0,14.0,35,0.00,,FEW050,0.00,VWS V14.01,2013-05-25 22:15:00,
2013-05-25 18:20:00,62.5,34.5,30.07,WNW,291,9.0,14.0,35,0.00,,FEW050,0.00,VWS V14.01,2013-05-25 22:20:00,
2013-05-25 18:25:00,62.2,33.5,30.07,WNW,290,6.0,16.0,34,0.00,,FEW050,0.00,VWS V14.01,2013-05-25 22:25:00,
2013-05-25 18:30:00,62.1,34.2,30.08,North,359,8.0,18.0,35,0.00,,FEW050,0.00,VWS V14.01,2013-05-25 22:30:00,
2013-05-25 18:35:00,62.0,34.1,30.08,West,270,10.0,15.0,35,0.00,,FEW050,0.00,VWS V14.01,2013-05-25 22:35:00,
2013-05-25 18:40:00,61.8,33.9,30.08,WNW,288,4.0,15.0,35,0.00,,FEW050,0.00,VWS V14.01,2013-05-25 22:40:00,
2013-05-25 18:45:00,61.7,33.8,30.08,West,278,3.0,15.0,35,0.00,,FEW050,0.00,VWS V14.01,2013-05-25 22:45:00,
2013-05-25 18:50:00,61.8,33.9,30.08,WNW,286,10.0,15.0,35,0.00,,FEW050,0.00,VWS V14.01,2013-05-25 22:50:00,
2013-05-25 18:55:00,61.5,33.6,30.08,NNE,18,7.0,15.0,35,0.00,,FEW050,0.00,VWS V14.01,2013-05-25 22:55:00,
2013-05-25 19:00:00,61.2,34.1,30.08,NNE,14,13.0,15.0,36,0.00,,FEW050,0.00,VWS V14.01,2013-05-25 23:00:00,
2013-05-25 19:05:00,61.0,33.9,30.08,ENE,68,2.0,17.0,36,0.00,,FEW050,0.00,VWS V14.01,2013-05-25 23:05:00,
2013-05-25 19:10:00,61.0,34.6,30.08,NW,324,6.0,17.0,37,0.00,,FEW050,0.00,VWS V14.01,2013-05-25 23:10:00,
2013-05-25 19:15:00,61.0,33.9,30.09,NNW,330,3.0,17.0,36,0.00,,FEW050,0.00,VWS V14.01,2013-05-25 23:15:00,
2013-05-25 19:20:00,61.0,33.9,30.09,NW,309,6.0,17.0,36,0.00,,FEW050,0.00,VWS V14.01,2013-05-25 23:20:00,
2013-05-25 19:25:00,60.6,33.5,30.09,North,357,5.0,17.0,36,0.00,,FEW050,0.00,VWS V14.01,2013-05-25 23:25:00,
2013-05-25 19:30:00,60.3,33.9,30.09,WNW,302,6.0,17.0,37,0.00,,FEW050,0.00,VWS V14.01,2013-05-25 23:30:00,
2013-05-25 19:35:00,59.6,34.0,30.09,North,7,4.0,10.0,38,0.00,,FEW050,0.00,VWS V14.01,2013-05-25 23:35:00,
2013-05-25 19:40:00,59.2,33.6,30.10,North,3,5.0,12.0,38,0.00,,FEW050,0.00,VWS V14.01,2013-05-25 23:40:00,
2013-05-25 19:45:00,59.0,34.1,30.09,NNE,14,7.0,12.0,39,0.00,,FEW050,0.00,VWS V14.01,2013-05-25 23:45:00,
2013-05-25 19:50:00,58.8,33.9,30.09,NW,319,6.0,12.0,39,0.00,,FEW050,0.00,VWS V14.01,2013-05-25 23:50:00,
2013-05-25 19:55:00,58.3,34.1,30.10,West,276,3.0,12.0,40,0.00,,FEW050,0.00,VWS V14.01,2013-05-25 23:55:00,
2013-05-25 20:00:00,57.9,33.8,30.10,North,9,4.0,12.0,40,0.00,,FEW050,0.00,VWS V14.01,2013-05-26 00:00:00,
2013-05-25 20:05:00,57.6,34.1,30.10,NE,46,4.0,6.0,41,0.00,,FEW050,0.00,VWS V14.01,2013-05-26 00:05:00,
2013-05-25 20:10:00,57.2,34.3,30.10,WNW,291,1.0,6.0,42,0.00,,FEW050,0.00,VWS V14.01,2013-05-26 00:10:00,
2013-05-25 20:15:00,56.9,34.1,30.10,NE,35,2.0,7.0,42,0.00,,FEW050,0.00,VWS V14.01,2013-05-26 00:15:00,
2013-05-25 20:20:00,56.8,34.0,30.10,NE,50,2.0,10.0,42,0.00,,FEW050,0.00,VWS V14.01,2013-05-26 00:20:00,
2013-05-25 20:25:00,56.6,34.4,30.10,NNW,338,1.0,10.0,43,0.00,,FEW050,0.00,VWS V14.01,2013-05-26 00:25:00,
2013-05-25 20:30:00,56.4,34.8,30.10,NE,47,1.0,10.0,44,0.00,,FEW050,0.00,VWS V14.01,2013-05-26 00:30:00,
2013-05-25 20:35:00,56.2,34.6,30.10,NW,318,1.0,6.0,44,0.00,,FEW050,0.00,VWS V14.01,2013-05-26 00:35:00,
2013-05-25 20:40:00,56.1,35.1,30.10,NW,325,2.0,6.0,45,0.00,,FEW050,0.00,VWS V14.01,2013-05-26 00:40:00,
2013-05-25 20:45:00,55.9,34.3,30.10,NW,311,3.0,8.0,44,0.00,,FEW050,0.00,VWS V14.01,2013-05-26 00:45:00,
2013-05-25 20:50:00,55.8,34.8,30.10,NE,39,8.0,8.0,45,0.00,,FEW050,0.00,VWS V14.01,2013-05-26 00:50:00,
2013-05-25 20:55:00,55.7,34.7,30.10,WNW,302,2.0,8.0,45,0.00,,FEW050,0.00,VWS V14.01,2013-05-26 00:55:00,
2013-05-25 21:00:00,55.5,34.5,30.11,WNW,295,0.0,9.0,45,0.00,,CLR,0.00,VWS V14.01,2013-05-26 01:00:00,
2013-05-25 21:05:00,55.5,34.5,30.11,WNW,300,3.0,9.0,45,0.00,,CLR,0.00,VWS V14.01,2013-05-26 01:05:00,
2013-05-25 21:10:00,55.3,34.3,30.11,WNW,285,8.0,9.0,45,0.00,,CLR,0.00,VWS V14.01,2013-05-26 01:10:00,
2013-05-25 21:15:00,55.2,34.8,30.11,WNW,293,2.0,9.0,46,0.00,,CLR,0.00,VWS V14.01,2013-05-26 01:15:00,
2013-05-25 21:20:00,55.1,34.7,30.11,WNW,288,3.0,9.0,46,0.00,,CLR,0.00,VWS V14.01,2013-05-26 01:20:00,
2013-05-25 21:25:00,55.0,34.6,30.11,WNW,288,4.0,9.0,46,0.00,,CLR,0.00,VWS V14.01,2013-05-26 01:25:00,
2013-05-25 21:30:00,54.8,35.0,30.12,NW,305,3.0,9.0,47,0.00,,CLR,0.00,VWS V14.01,2013-05-26 01:30:00,
2013-05-25 21:35:00,54.7,34.9,30.12,NW,314,4.0,11.0,47,0.00,,CLR,0.00,VWS V14.01,2013-05-26 01:35:00,
2013-05-25 21:40:00,54.7,34.3,30.12,WSW,250,2.0,11.0,46,0.00,,CLR,0.00,VWS V14.01,2013-05-26 01:40:00,
2013-05-25 21:45:00,54.6,34.8,30.12,WSW,250,1.0,11.0,47,0.00,,CLR,0.00,VWS V14.01,2013-05-26 01:45:00,
2013-05-25 21:50:00,54.5,34.7,30.12,NNW,330,2.0,11.0,47,0.00,,CLR,0.00,VWS V14.01,2013-05-26 01:50:00,
2013-05-25 21:55:00,54.4,34.6,30.12,North,6,2.0,11.0,47,0.00,,CLR,0.00,VWS V14.01,2013-05-26 01:55:00,
2013-05-25 22:00:00,54.2,34.4,30.12,WNW,291,3.0,11.0,47,0.00,,CLR,0.00,VWS V14.01,2013-05-26 02:00:00,
2013-05-25 22:05:00,54.2,34.4,30.12,WNW,287,3.0,5.0,47,0.00,,CLR,0.00,VWS V14.01,2013-05-26 02:05:00,
2013-05-25 22:10:00,54.0,34.8,30.12,WNW,287,2.0,5.0,48,0.00,,CLR,0.00,VWS V14.01,2013-05-26 02:10:00,
2013-05-25 22:15:00,53.7,35.5,30.12,WNW,294,2.0,5.0,50,0.00,,CLR,0.00,VWS V14.01,2013-05-26 02:15:00,
2013-05-25 22:20:00,53.4,34.7,30.12,WNW,286,3.0,5.0,49,0.00,,CLR,0.00,VWS V14.01,2013-05-26 02:20:00,
2013-05-25 22:25:00,53.3,35.2,30.12,WNW,301,3.0,9.0,50,0.00,,CLR,0.00,VWS V14.01,2013-05-26 02:25:00,
2013-05-25 22:30:00,53.1,35.0,30.12,WNW,297,3.0,9.0,50,0.00,,CLR,0.00,VWS V14.01,2013-05-26 02:30:00,
2013-05-25 22:35:00,52.8,35.7,30.12,West,281,3.0,5.0,52,0.00,,CLR,0.00,VWS V14.01,2013-05-26 02:35:00,
2013-05-25 22:40:00,52.4,35.8,30.13,West,268,3.0,6.0,53,0.00,,CLR,0.00,VWS V14.01,2013-05-26 02:40:00,
2013-05-25 22:45:00,52.3,35.7,30.12,WSW,256,3.0,9.0,53,0.00,,CLR,0.00,VWS V14.01,2013-05-26 02:45:00,
2013-05-25 22:50:00,52.2,35.6,30.12,WNW,296,3.0,9.0,53,0.00,,CLR,0.00,VWS V14.01,2013-05-26 02:50:00,
2013-05-25 22:55:00,52.1,35.5,30.12,WNW,284,3.0,9.0,53,0.00,,CLR,0.00,VWS V14.01,2013-05-26 02:55:00,
2013-05-25 23:00:00,52.2,35.6,30.12,WNW,291,9.0,9.0,53,0.00,,CLR,0.00,VWS V14.01,2013-05-26 03:00:00,
2013-05-25 23:05:00,52.1,35.5,30.12,WNW,288,2.0,5.0,53,0.00,,CLR,0.00,VWS V14.01,2013-05-26 03:05:00,
2013-05-25 23:10:00,51.9,35.3,30.13,WNW,285,4.0,5.0,53,0.00,,CLR,0.00,VWS V14.01,2013-05-26 03:10:00,
2013-05-25 23:15:00,51.7,35.6,30.13,WNW,291,1.0,5.0,54,0.00,,CLR,0.00,VWS V14.01,2013-05-26 03:15:00,
2013-05-25 23:20:00,51.3,35.2,30.13,NW,319,1.0,5.0,54,0.00,,CLR,0.00,VWS V14.01,2013-05-26 03:20:00,
2013-05-25 23:25:00,50.9,35.3,30.13,NNW,342,0.0,5.0,55,0.00,,CLR,0.00,VWS V14.01,2013-05-26 03:25:00,
2013-05-25 23:30:00,50.5,35.8,30.13,WNW,293,0.0,5.0,57,0.00,,CLR,0.00,VWS V14.01,2013-05-26 03:30:00,
2013-05-25 23:35:00,50.1,35.9,30.13,West,273,1.0,3.0,58,0.00,,CLR,0.00,VWS V14.01,2013-05-26 03:35:00,
2013-05-25 23:40:00,49.9,36.2,30.13,WNW,296,3.0,3.0,59,0.00,,CLR,0.00,VWS V14.01,2013-05-26 03:40:00,
2013-05-25 23:45:00,49.7,36.4,30.13,WNW,284,1.0,4.0,60,0.00,,CLR,0.00,VWS V14.01,2013-05-26 03:45:00,
2013-05-25 23:50:00,49.6,35.9,30.12,WNW,287,1.0,4.0,59,0.00,,CLR,0.00,VWS V14.01,2013-05-26 03:50:00,
2013-05-25 23:55:00,49.4,36.1,30.12,WNW,287,1.0,4.0,60,0.00,,CLR,0.00,VWS V14.01,2013-05-26 03:55:00,